Terug naar catalogus

CZ-6A DEB

ActiefPO
NORAD 60762·DEBRIS·🇨🇳 China

Gelanceerd Aug 6, 2024 vanaf Taiyuan Satellite Launch Center

Loading…

Volgende Passages (komende 24 uur)

TLE

VersSource: Space-Track

Epoch: Sep 14, 2026, 10:37 UTC

1 60762U 24140EM  26257.44244056  .00000827  00000-0  19141-3 0  9999
2 60762  89.0252 262.9572 0101540 340.1161  19.6099 14.51087712110573

Volg CZ-6A DEB in realtime met AllMySat

Download on the App Store